Regional Weather Roundup
Issued by NWS

Home | Current Version | Previous Version | Graphics & Text | Print | Product List | Glossary On
Versions: 1 2 3 4 5 6 7 8 9 10 11 12 13 14 15 16 17 18 19 20 21 22 23 24 25 26 27 28 29 30 31 32 33 34 35 36 37 38 39 40 41 42 43 44 45 46 47 48 49 50
000
ASUS43 KIND 262009
RWRIN

WEATHER ROUNDUP FOR INDIANA
NATIONAL WEATHER SERVICE INDIANAPOLIS IN
400 PM EDT WED JUL 26 2017

NOTE: "FAIR" INDICATES FEW OR NO CLOUDS BELOW 12,000 FEET WITH NO
SIGNIFICANT WEATHER AND/OR OBSTRUCTIONS TO VISIBILITY.

* - STATION DOES NOT REPORT WEATHER SUCH AS PRECIPITATION OR FOG.

+ - STATION NOT QUALITY CONTROLLED BY THE NATIONAL WEATHER SERVICE.
    USE DATA WITH CAUTION...ESPECIALLY DEWPOINT AND RELATIVE
    HUMIDITY OBSERVATIONS.

INZ001>003-010>013-019-020-262100-
NORTHWEST INDIANA

CITY           SKY/WX    TMP DP  RH WIND       PRES   REMARKS
GARY /AIRPORT/ CLOUDY    84  68  58 SW8       30.05S
KNOX *+        CLOUDY    81  70  69 S5        30.05S
LA PORTE +     PTSUNNY   81  70  69 S5        30.06F
MICHIGAN CITY+ PTSUNNY   82  70  65 S5        30.05S
MONTICELLO +   MOSUNNY   81  69  66 SE3       30.04F
RENSSELAER +   CLOUDY    81  70  69 SE6       30.05F
VALPARAISO     CLOUDY    83  71  67 S8        30.05F

$$

LMZ046-743>745-262100-
SOUTHERN LAKE MICHIGAN

STATION/POSITION TIME  TEMP    WIND        PRES    WAVE
                       AIR SEA DIR/SP/G            HT
                 (UTC) (F)     (DEG/KT/KT) (MB)    (FT)
BURNS HARBOR     1940   82     220/  5/ 12 1017.3F
MICHIGAN CITY    1940   80     210/  5/  7   N/A
5NW MICH CITY    2000   79 76   40/  2/  4   N/A     0

$$

INZ004-005-014>016-021>024-262100-
NORTH CENTRAL INDIANA

CITY           SKY/WX    TMP DP  RH WIND       PRES   REMARKS
ELKHART        CLOUDY    82  63  51 SW12      30.06F
GOSHEN         CLOUDY    83  63  50 S10       30.06F
LOGANSPORT +   MOSUNNY   81  68  65 SW6       30.06F
PERU/GRISSOM   PTSUNNY   82  68  61 S6        30.05F
ROCHESTER +    MOSUNNY   84  68  58 S7        30.07F
SOUTH BEND     PTSUNNY   81  65  58 S8        30.06F
WARSAW +       CLOUDY    79  64  61 S7        30.07F

$$

INZ006>009-017-018-025>027-262100-
NORTHEAST INDIANA

CITY           SKY/WX    TMP DP  RH WIND       PRES   REMARKS
AUBURN +       MOSUNNY   81  61  50 CALM      30.08F
FORT WAYNE     PTSUNNY   81  64  56 S7        30.08F
HUNTINGTON +   MOSUNNY   81  63  54 S6        30.07F
KENDALLVILLE + CLOUDY    80  63  56 S12       30.08F

$$

INZ028-029-035-036-043>045-051>053-262100-
WEST CENTRAL INDIANA

CITY           SKY/WX    TMP DP  RH WIND       PRES   REMARKS
GREENCASTLE +  CLOUDY    82  70  65 SE5       30.06S
LAFAYETTE      CLOUDY    82  72  71 S6        30.04F
TERRE HAUTE    PTSUNNY   87  74  64 S5        30.03F HX  95

$$

INZ030>032-037>040-046>048-054>057-064-065-262100-
CENTRAL INDIANA

CITY           SKY/WX    TMP DP  RH WIND       PRES   REMARKS
ANDERSON       SUNNY     82  61  47 MISG      30.07
CP ATTERBURY + PTSUNNY   84  70  61 SE5       30.07F
COLUMBUS       PTSUNNY   84  66  54 S5        30.07F
FRANKFORT +    CLOUDY    84  72  66 CALM      30.08F
GREENWOOD *+   CLOUDY   N/A N/A N/A E5        30.08S
INDIANAPOLIS   CLOUDY    83  69  62 SE6       30.05F
-EAGLE CREEK   MOSUNNY   85  67  54 S7        30.05F
KOKOMO +       CLOUDY    81  69  67 S8        30.07F
MARION +       MOSUNNY   81  64  57 S7        30.08F
MT COMFORT *+  CLOUDY    82  68  61 SE6       30.09S
SHELBYVILLE    PTSUNNY   84  67  56 CALM      30.07F
ZIONSVILLE +   MOSUNNY   82  68  62 W3        30.07F

$$

INZ033-034-041-042-049-050-058-059-262100-
EAST CENTRAL INDIANA

CITY           SKY/WX    TMP DP  RH WIND       PRES   REMARKS
MUNCIE         CLOUDY    84  65  52 SW5       30.07F
RICHMOND +     SUNNY     79  66  65 S5        30.11F

$$

INZ060-061-067>069-081>083-085>088-262100-
SOUTHWEST INDIANA

CITY           SKY/WX    TMP DP  RH WIND       PRES   REMARKS
EVANSVILLE     CLOUDY   N/A N/A N/A SW9       30.00F
HUNTINGBURG *+ CLOUDY    89  77  67 S5        30.03F HX 101

$$

INZ062-063-066-070>080-084-089>092-262100-
SOUTH CENTRAL AND SOUTHEAST INDIANA

CITY           SKY/WX    TMP DP  RH WIND       PRES   REMARKS
BEDFORD +      PTSUNNY   86  70  58 SE5       30.04F
BLOOMINGTON    PTSUNNY   87  70  56 SE8       30.05F
MADISON *+     MOSUNNY   86  68  54 S6        30.09F
NORTH VERNON + PTSUNNY   84  70  61 S6        30.08F
SEYMOUR +      CLOUDY    88  68  51 E5        30.06F

$$





USA.gov is the U.S. government's official web portal to all federal, state and local government web resources and services.